This is the latest recevied weather packets stored in our database for station/object N5PRN. If no packets are shown the sender has not sent any weather packets the latest 1 day(s).
| Time | Temp. | Humidity | Pressure | Rain* | Wind** | Luminosity | Snow |
|---|---|---|---|---|---|---|---|
| 1777986186 | 19.44° C | 90% | 1011 hPa | 0 mm | 0.45 m/s, 214° | 58 W/m² | - |
| 1777985881 | 19.44° C | 91% | 1010.7 hPa | 0 mm | 0.45 m/s, 204° | 69 W/m² | - |
| 1777985578 | 19.44° C | 90% | 1011 hPa | 0 mm | 0.89 m/s, 178° | 60 W/m² | - |
| 1777985274 | 19.44° C | 90% | 1010.5 hPa | 0 mm | 0.45 m/s, 205° | 52 W/m² | - |
| 1777984971 | 18.89° C | 90% | 1010.7 hPa | 0 mm | 0.89 m/s, 241° | 60 W/m² | - |
| 1777984666 | 18.89° C | 90% | 1010.8 hPa | 0 mm | 1.34 m/s, 165° | 42 W/m² | - |
| 1777984363 | 18.89° C | 90% | 1011 hPa | 0 mm | 0.89 m/s, 214° | 39 W/m² | - |
| 1777984060 | 18.89° C | 90% | 1010.7 hPa | 0 mm | 0 m/s | 52 W/m² | - |
| 1777983757 | 18.89° C | 90% | 1010.4 hPa | 0 mm | 1.34 m/s, 257° | 27 W/m² | - |
| 1777983454 | 18.89° C | 90% | 1010.4 hPa | 0 mm | 1.79 m/s, 211° | 29 W/m² | - |
| 1777983150 | 18.89° C | 90% | 1010.4 hPa | 0 mm | 0.89 m/s, 229° | 40 W/m² | - |
| 1777982847 | 18.89° C | 90% | 1010.6 hPa | 0 mm | 1.34 m/s, 226° | 16 W/m² | - |
| 1777982543 | 18.89° C | 89% | 1010.5 hPa | 0 mm | 0.89 m/s, 224° | 11 W/m² | - |
| 1777982241 | 18.89° C | 89% | 1010.2 hPa | 0 mm | 0.89 m/s, 172° | 11 W/m² | - |
| 1777981940 | 18.89° C | 89% | 1010 hPa | 0 mm | 0.89 m/s, 200° | 9 W/m² | - |
| 1777981637 | 18.89° C | 89% | 1010.1 hPa | 0 mm | 1.34 m/s, 159° | 6 W/m² | - |
| 1777981333 | 18.89° C | 89% | 1010 hPa | 0 mm | 1.34 m/s, 202° | 4 W/m² | - |
| 1777981029 | 18.89° C | 89% | 1009.9 hPa | 0 mm | 1.79 m/s, 245° | 2 W/m² | - |
| 1777980726 | 18.89° C | 88% | 1010 hPa | 0 mm | 1.34 m/s, 232° | 0 W/m² | - |
| 1777980422 | 18.89° C | 88% | 1010.2 hPa | 0 mm | 0.89 m/s, 222° | 0 W/m² | - |
| 1777980120 | 18.89° C | 88% | 1009.9 hPa | 0 mm | 0.89 m/s, 194° | 0 W/m² | - |
| 1777979820 | 18.89° C | 88% | 1010.1 hPa | 0 mm | 1.79 m/s, 235° | 0 W/m² | - |
| 1777979516 | 18.89° C | 88% | 1010 hPa | 0 mm | 0.89 m/s, 184° | 0 W/m² | - |
| 1777979212 | 18.89° C | 88% | 1010.1 hPa | 0 mm | 1.34 m/s, 208° | 0 W/m² | - |
| 1777978909 | 18.33° C | 88% | 1010 hPa | 0 mm | 2.24 m/s, 241° | 0 W/m² | - |
* Rain latest hour (hover to see other rain measurements)
** Current wind speed in m/s (hover to see current wind gust speed)